QPF
0.00 0.00 0.00 0.00 0.00 0.00 0.00 0.00 0.00 0.00 0.00 0.00 0.00 0.01 0.08 0.07 0.10 0.04 0.01 0.00 0.00 0.00 0.00 0.00 0.00 0.00 0.00 0.00 0.00 0.00 0.00 0.00 0.00 0.00 0.00 0.00 0.00 0.00 0.00 0.00 0.02 0.02 0.01 0.04
0.00 0.00 0.00 0.00 0.00 0.00 0.00 0.00 0.00 0.00 0.00 0.00 0.00 0.02 0.06 0.11 0.15 0.08 0.03 0.01 0.01 0.01 0.00 0.00 0.00 0.00 0.00 0.00 0.00 0.00 0.00 0.00 0.00 0.00 0.00 0.00 0.02 0.09 0.10 0.11 0.10 0.16 0.06 0.01
0.00 0.00 0.00 0.00 0.00 0.00 0.00 0.00 0.00 0.00 0.00 0.00 0.00 0.01 0.02 0.02 0.01 0.02 0.01 0.01 0.01 0.00 0.01 0.00 0.00 0.00 0.00 0.00 0.00 0.00 0.00 0.00 0.00 0.00 0.00 0.00 0.08 0.11 0.09 0.21 0.19 0.25 0.29 0.10
0.00 0.00 0.00 0.00 0.00 0.00 0.00 0.00 0.00 0.00 0.00 0.00 0.01 0.00 0.00 0.00 0.00 0.00 0.00 0.00 0.00 0.00 0.00 0.00 0.00 0.00 0.00 0.00 0.00 0.00 0.00 0.00 0.00 0.00 0.00 0.00 0.01 0.13 0.10 0.03 0.13 0.32 0.30 0.19
0.00 0.00 0.00 0.00 0.00 0.00 0.00 0.00 0.00 0.00 0.00 0.00 0.00 0.00 0.00 0.00 0.00 0.00 0.00 0.00 0.00 0.00 0.00 0.00 0.00 0.00 0.00 0.00 0.00 0.00 0.00 0.00 0.00 0.00 0.00 0.00 0.02 0.21 0.19 0.02 0.04 0.28 0.31 0.25
0.00 0.00 0.00 0.00 0.00 0.00 0.00 0.00 0.00 0.00 0.00 0.00 0.00 0.00 0.00 0.00 0.00 0.00 0.00 0.00 0.00 0.00 0.00 0.00 0.00 0.00 0.00 0.00 0.00 0.00 0.00 0.00 0.00 0.00 0.00 0.00 0.01 0.03 0.09 0.04 0.01 0.04 0.10 0.23
0.00 0.00 0.00 0.00 0.00 0.00 0.00 0.00 0.00 0.00 0.00 0.00 0.00 0.00 0.00 0.00 0.00 0.00 0.00 0.00 0.00 0.00 0.00 0.00 0.00 0.00 0.00 0.00 0.00 0.00 0.00 0.00 0.00 0.00 0.00 0.00 0.01 0.05 0.01 0.01 0.00 0.02 0.11 0.08
0.00 0.00 0.00 0.00 0.00 0.00 0.00 0.00 0.00 0.00 0.00 0.00 0.00 0.00 0.00 0.00 0.00 0.00 0.00 0.00 0.00 0.00 0.00 0.00 0.00 0.00 0.00 0.00 0.00 0.00 0.00 0.00 0.00 0.00 0.00 0.00 0.00 0.01 0.01 0.00 0.00 0.01 0.03 0.03
0.00 0.00 0.00 0.00 0.00 0.00 0.00 0.00 0.00 0.00 0.00 0.00 0.00 0.00 0.00 0.00 0.00 0.00 0.00 0.00 0.00 0.00 0.00 0.00 0.00 0.00 0.00 0.00 0.00 0.00 0.00 0.00 0.00 0.00 0.00 0.00 0.00 0.00 0.00 0.00 0.00 0.01 0.07 0.06
0.00 0.00 0.00 0.00 0.00 0.00 0.00 0.00 0.00 0.00 0.00 0.00 0.00 0.00 0.00 0.00 0.00 0.00 0.00 0.00 0.00 0.00 0.00 0.00 0.02 0.04 0.01 0.00 0.00 0.00 0.00 0.00 0.00 0.00 0.00 0.00 0.00 0.00 0.00 0.00 0.00 0.00 0.02 0.04
0.00 0.00 0.00 0.00 0.00 0.00 0.00 0.00 0.00 0.00 0.00 0.00 0.00 0.00 0.00 0.00 0.00 0.00 0.00 0.00 0.00 0.01 0.00 0.01 0.09 0.08 0.09 0.02 0.00 0.00 0.00 0.00 0.00 0.00 0.00 0.00 0.00 0.00 0.00 0.00 0.00 0.00 0.01 0.01
0.00 0.00 0.00 0.00 0.00 0.00 0.00 0.00 0.00 0.00 0.00 0.00 0.00 0.00 0.00 0.00 0.00 0.00 0.00 0.00 0.00 0.04 0.04 0.12 0.11 0.04 0.08 0.03 0.00 0.00 0.00 0.00 0.00 0.00 0.00 0.00 0.00 0.00 0.00 0.00 0.00 0.00 0.01 0.01
0.00 0.00 0.00 0.00 0.00 0.00 0.00 0.00 0.00 0.00 0.00 0.00 0.00 0.00 0.00 0.00 0.00 0.00 0.00 0.00 0.00 0.00 0.03 0.09 0.17 0.15 0.20 0.05 0.01 0.00 0.00 0.00 0.00 0.00 0.00 0.00 0.00 0.00 0.00 0.00 0.00 0.00 0.00 0.01
0.00 0.00 0.00 0.00 0.00 0.00 0.00 0.00 0.00 0.00 0.00 0.00 0.00 0.00 0.00 0.00 0.00 0.00 0.00 0.00 0.00 0.00 0.00 0.00 0.01 0.03 0.05 0.01 0.00 0.01 0.00 0.00 0.00 0.00 0.00 0.00 0.00 0.00 0.00 0.00 0.00 0.00 0.00 0.00
0.00 0.00 0.00 0.00 0.00 0.00 0.00 0.00 0.00 0.00 0.00 0.00 0.00 0.00 0.00 0.00 0.00 0.00 0.00 0.00 0.00 0.00 0.02 0.01 0.00 0.01 0.01 0.00 0.00 0.01 0.00 0.00 0.00 0.00 0.00 0.01 0.02 0.04 0.02 0.00 0.00 0.00 0.00 0.00
0.00 0.00 0.00 0.00 0.00 0.00 0.00 0.00 0.00 0.00 0.00 0.00 0.00 0.00 0.00 0.00 0.00 0.00 0.00 0.00 0.00 0.00 0.01 0.03 0.02 0.02 0.01 0.00 0.00 0.00 0.00 0.00 0.00 0.00 0.08 0.13 0.24 0.19 0.09 0.05 0.03 0.02 0.01 0.03
0.00 0.00 0.00 0.00 0.00 0.00 0.00 0.00 0.00 0.00 0.00 0.00 0.00 0.00 0.00 0.00 0.00 0.00 0.00 0.00 0.00 0.00 0.00 0.01 0.02 0.01 0.00 0.00 0.00 0.00 0.00 0.00 0.00 0.09 0.21 0.10 0.04 0.00 0.01 0.05 0.08 0.14 0.09 0.07
0.00 0.00 0.00 0.00 0.00 0.00 0.00 0.00 0.00 0.00 0.00 0.00 0.00 0.00 0.00 0.00 0.00 0.00 0.00 0.00 0.00 0.00 0.02 0.09 0.08 0.01 0.00 0.00 0.00 0.00 0.00 0.03 0.03 0.07 0.09 0.08 0.04 0.00 0.00 0.01 0.06 0.07 0.09 0.15
0.00 0.00 0.00 0.00 0.00 0.00 0.00 0.00 0.00 0.00 0.00 0.00 0.00 0.00 0.00 0.00 0.00 0.00 0.00 0.02 0.07 0.06 0.01 0.03 0.11 0.07 0.03 0.02 0.00 0.00 0.03 0.10 0.09 0.05 0.04 0.03 0.02 0.01 0.00 0.00 0.00 0.00 0.01 0.06
0.00 0.00 0.00 0.00 0.00 0.00 0.00 0.00 0.00 0.00 0.00 0.00 0.00 0.00 0.00 0.00 0.00 0.00 0.00 0.01 0.03 0.04 0.07 0.05 0.06 0.05 0.06 0.10 0.06 0.01 0.00 0.02 0.04 0.03 0.02 0.00 0.00 0.00 0.00 0.00 0.00 0.00 0.00 0.00
0.00 0.00 0.00 0.00 0.00 0.00 0.00 0.00 0.00 0.00 0.00 0.00 0.00 0.00 0.00 0.00 0.00 0.00 0.00 0.00 0.00 0.00 0.00 0.01 0.03 0.05 0.06 0.10 0.16 0.14 0.05 0.03 0.02 0.01 0.00 0.00 0.00 0.00 0.00 0.00 0.00 0.00 0.00 0.00
0.00 0.00 0.00 0.00 0.00 0.00 0.00 0.00 0.00 0.00 0.00 0.00 0.00 0.00 0.00 0.00 0.00 0.00 0.00 0.00 0.00 0.00 0.00 0.00 0.02 0.02 0.07 0.06 0.08 0.13 0.17 0.22 0.16 0.14 0.06 0.03 0.01 0.00 0.00 0.00 0.00 0.00 0.00 0.00
0.00 0.00 0.00 0.00 0.00 0.00 0.00 0.00 0.00 0.00 0.00 0.00 0.00 0.00 0.00 0.00 0.00 0.00 0.00 0.00 0.00 0.00 0.00 0.00 0.00 0.00 0.01 0.00 0.02 0.03 0.09 0.16 0.17 0.11 0.08 0.07 0.05 0.01 0.00 0.00 0.00 0.00 0.00 0.00
0.00 0.00 0.00 0.00 0.00 0.00 0.00 0.00 0.00 0.00 0.00 0.00 0.00 0.00 0.00 0.00 0.00 0.00 0.00 0.00 0.00 0.00 0.00 0.00 0.00 0.00 0.00 0.00 0.03 0.02 0.01 0.04 0.04 0.01 0.01 0.01 0.00 0.01 0.00 0.00 0.00 0.00 0.00 0.00
0.00 0.00 0.00 0.00 0.00 0.00 0.00 0.00 0.00 0.00 0.00 0.00 0.00 0.00 0.00 0.00 0.00 0.00 0.00 0.00 0.00 0.00 0.00 0.00 0.00 0.00 0.00 0.00 0.01 0.02 0.03 0.06 0.07 0.06 0.03 0.03 0.02 0.00 0.00 0.00 0.00 0.00 0.00 0.00
0.00 0.00 0.00 0.00 0.00 0.00 0.00 0.00 0.00 0.00 0.00 0.00 0.00 0.00 0.00 0.00 0.00 0.00 0.00 0.00 0.00 0.00 0.00 0.00 0.00 0.00 0.00 0.00 0.00 0.00 0.02 0.02 0.03 0.04 0.02 0.01 0.01 0.00 0.00 0.00 0.00 0.00 0.00 0.00
MSLP
1000.75 1001.25 1001.03 1000.42 1000.23 1000.22 1001.04 1002.44 1002.91 1002.15 1000.70 1001.93 1002.96 1004.83 1007.46 1006.37 1006.05 1005.53 1005.54 1005.94 1006.11 1006.32 1006.64 1007.08 1007.32 1007.62 1008.21 1009.02 1009.84 1010.60 1011.58 1012.62 1013.56 1014.48 1015.20 1015.70 1016.12 1016.03 1016.05 1016.02 1015.98 1016.49 1016.46 1016.94
1001.12 1000.76 999.86 999.39 999.40 999.84 1000.23 1000.61 1000.98 1001.10 1000.17 999.89 1002.42 1005.47 1005.93 1005.92 1004.69 1004.24 1004.39 1004.58 1004.79 1005.20 1005.53 1005.96 1006.62 1006.97 1007.53 1008.47 1009.30 1010.20 1011.08 1012.21 1013.06 1013.82 1014.59 1015.18 1015.47 1015.92 1016.27 1016.57 1016.99 1016.79 1016.55 1016.71
1000.74 999.72 999.01 998.87 999.08 999.61 999.78 999.96 999.66 999.63 999.62 1000.03 1002.51 1005.52 1006.68 1005.05 1002.22 1002.53 1003.03 1002.91 1003.41 1003.69 1004.31 1004.95 1005.64 1006.19 1006.87 1007.86 1008.87 1009.79 1010.66 1011.64 1012.55 1013.38 1014.33 1014.98 1015.37 1015.90 1016.27 1016.64 1016.69 1016.87 1017.04 1016.71
999.89 998.66 998.60 998.63 998.98 999.10 999.41 999.01 999.04 999.25 999.89 1000.68 1000.76 1005.07 1005.86 1004.57 1003.08 1001.98 1001.51 1001.96 1002.01 1002.36 1003.00 1003.79 1004.58 1005.40 1006.14 1007.21 1008.17 1009.29 1010.21 1011.16 1012.03 1012.93 1013.75 1014.36 1014.96 1015.61 1015.53 1015.88 1016.30 1016.10 1016.31 1017.03
999.77 998.84 998.44 998.64 998.69 998.68 999.01 998.76 999.18 999.54 1000.13 1000.98 1001.00 1003.59 1004.18 1003.72 1003.21 1001.42 1000.31 1000.09 1000.54 1001.05 1001.68 1002.59 1003.46 1004.31 1005.22 1006.39 1007.49 1008.62 1009.66 1010.57 1011.40 1012.32 1012.95 1013.55 1014.24 1014.62 1015.10 1015.98 1016.14 1016.33 1016.69 1016.90
999.46 998.53 998.33 998.31 998.45 998.59 998.76 999.02 999.33 999.71 1000.63 1002.14 1001.41 1002.38 1003.76 1003.28 1001.97 1000.86 1000.04 999.65 999.36 1000.19 1000.92 1001.68 1002.53 1003.57 1004.58 1005.73 1006.97 1008.08 1009.10 1010.03 1010.69 1011.49 1012.30 1012.88 1013.63 1014.28 1014.95 1015.70 1015.89 1016.23 1016.12 1015.79
999.26 998.50 997.98 998.04 998.38 998.50 998.90 999.42 1000.44 1001.16 1001.89 1002.59 1001.56 1001.72 1001.31 1000.98 1000.34 1000.10 999.31 998.82 999.04 999.51 1000.19 1001.11 1002.14 1002.96 1003.93 1005.05 1006.41 1007.71 1008.81 1009.82 1010.44 1011.11 1011.81 1012.43 1013.04 1013.87 1014.34 1014.53 1014.68 1015.21 1015.18 1015.11
999.33 998.56 998.03 997.96 998.14 998.64 999.08 999.80 1001.10 1001.98 1002.41 1001.83 1001.18 1001.07 1000.50 999.52 999.11 998.86 998.67 998.72 998.84 999.03 999.62 1000.39 1001.15 1002.24 1003.47 1004.78 1006.05 1007.31 1008.34 1009.29 1010.01 1010.84 1011.34 1011.81 1012.55 1012.98 1013.69 1013.85 1014.06 1014.09 1014.56 1015.37
1000.03 999.29 998.15 997.86 997.91 998.59 998.99 999.80 1000.15 1001.43 1001.66 1002.36 1001.73 1001.20 1000.14 999.85 999.39 999.41 999.16 999.35 999.27 999.10 999.85 1000.11 1001.12 1002.10 1003.28 1004.51 1005.75 1007.11 1008.37 1009.09 1009.55 1009.97 1010.86 1011.31 1011.82 1012.35 1012.61 1012.93 1013.29 1013.48 1014.45 1015.04
1000.37 1000.27 999.00 998.40 998.05 998.29 998.97 999.48 1000.34 1001.74 1003.16 1003.09 1003.27 1001.95 1001.41 1000.62 1000.40 1000.13 1000.14 1000.22 1000.21 1000.26 999.31 1000.71 1002.77 1003.57 1003.49 1004.55 1005.50 1006.67 1007.66 1008.37 1008.97 1009.44 1010.03 1010.60 1011.10 1011.65 1012.09 1012.45 1012.61 1012.70 1013.15 1014.26
1000.81 1001.08 1000.43 999.40 999.02 998.87 999.44 999.93 1000.90 1001.96 1003.01 1003.57 1003.51 1002.81 1001.29 1001.02 1000.97 1001.14 1001.29 1001.42 1001.56 1003.03 1003.55 1003.80 1004.69 1006.03 1007.62 1005.80 1005.36 1006.08 1007.08 1007.61 1008.38 1008.83 1009.30 1010.07 1010.48 1011.03 1011.63 1012.02 1012.15 1012.09 1012.35 1012.96
1001.76 1002.03 1002.06 1000.88 999.66 999.35 999.47 1000.06 1000.92 1002.76 1003.32 1003.12 1003.00 1002.88 1002.19 1002.08 1001.67 1001.30 1001.31 1001.82 1002.35 1003.81 1004.99 1004.73 1004.21 1005.99 1007.84 1009.61 1007.20 1006.79 1006.84 1007.07 1007.24 1007.83 1008.44 1009.25 1009.92 1010.47 1010.98 1011.39 1011.71 1011.91 1012.04 1012.47
1002.54 1002.85 1003.35 1002.17 1000.80 1000.40 1000.17 1000.33 1000.85 1001.70 1002.57 1003.35 1003.53 1002.93 1002.41 1002.08 1001.38 1002.19 1001.47 1001.84 1002.41 1004.12 1005.31 1005.67 1005.55 1007.04 1008.32 1008.52 1005.94 1005.73 1005.61 1006.22 1006.54 1007.07 1007.72 1008.42 1009.01 1009.72 1010.24 1010.67 1011.06 1011.34 1011.52 1011.99
1002.54 1003.27 1003.98 1003.64 1002.92 1002.00 1001.34 1001.05 1001.23 1001.97 1003.06 1003.16 1003.15 1002.73 1002.59 1002.75 1002.22 1001.55 1001.57 1002.08 1002.46 1004.10 1005.08 1006.55 1006.68 1006.89 1006.86 1005.98 1004.17 1003.26 1005.35 1005.34 1006.41 1006.58 1007.08 1007.58 1008.18 1008.60 1009.21 1009.83 1010.34 1010.63 1010.80 1011.19
1002.72 1003.48 1003.61 1003.43 1002.80 1002.22 1001.78 1001.47 1001.42 1001.93 1002.32 1002.77 1002.23 1002.25 1001.91 1001.75 1001.85 1001.87 1001.59 1001.66 1002.27 1003.22 1005.71 1005.68 1006.57 1006.90 1006.99 1006.20 1004.46 1003.80 1004.30 1004.83 1005.34 1006.29 1006.51 1007.20 1007.82 1008.09 1008.08 1008.44 1009.22 1009.54 1009.99 1010.26
1002.71 1003.47 1003.66 1003.82 1003.26 1002.74 1002.13 1001.46 1001.13 1001.12 1001.31 1001.48 1001.58 1001.66 1001.01 1000.46 1001.24 1001.67 1001.76 1001.85 1002.34 1002.69 1003.44 1004.76 1005.87 1006.27 1005.53 1004.98 1004.77 1005.16 1004.28 1004.30 1005.31 1006.18 1006.74 1006.80 1007.20 1007.70 1008.86 1008.83 1008.57 1008.99 1009.55 1009.99
1003.23 1003.61 1004.26 1004.40 1003.87 1003.20 1002.57 1001.36 1000.92 1000.54 1000.66 1001.22 1001.81 1001.62 1001.34 1002.11 1004.03 1004.17 1002.96 1002.39 1003.39 1003.78 1004.11 1003.47 1002.50 1004.26 1005.22 1005.55 1005.51 1005.89 1006.34 1005.67 1005.60 1006.03 1006.35 1006.19 1006.41 1006.76 1006.56 1008.28 1009.46 1009.06 1009.48 1009.71
1002.97 1003.65 1004.15 1004.72 1004.38 1003.77 1002.16 1000.60 1000.09 1000.21 1000.81 1001.12 1001.62 1002.05 1002.57 1003.68 1004.52 1004.18 1004.28 1004.66 1004.14 1003.70 1003.96 1003.70 1003.84 1003.81 1004.05 1004.22 1005.05 1005.83 1006.44 1006.89 1006.83 1006.89 1007.35 1007.61 1007.83 1008.06 1008.34 1008.58 1009.43 1009.44 1009.10 1009.17
1002.05 1003.10 1004.20 1004.67 1004.68 1003.64 1001.81 1000.75 1000.54 1000.65 1002.12 1002.14 1002.52 1002.78 1003.24 1003.72 1003.99 1005.39 1005.62 1005.38 1005.59 1005.34 1005.07 1005.83 1007.14 1005.51 1004.22 1003.88 1004.18 1004.93 1006.46 1006.95 1007.46 1006.99 1006.78 1007.43 1008.16 1008.83 1008.79 1009.11 1009.26 1008.80 1008.86 1008.87
1001.82 1002.61 1004.24 1004.83 1004.85 1003.91 1001.77 1000.94 1000.58 1000.87 1002.50 1002.92 1003.16 1003.68 1004.13 1004.30 1005.35 1006.24 1006.47 1006.16 1006.25 1006.09 1006.08 1007.41 1005.87 1006.25 1005.63 1006.73 1007.60 1006.71 1006.65 1007.51 1007.58 1007.33 1007.55 1007.14 1007.34 1007.75 1007.79 1008.10 1008.30 1008.53 1008.57 1008.39
1002.57 1003.21 1004.02 1004.62 1004.40 1003.30 1002.13 1001.39 1001.17 1002.17 1004.17 1003.78 1004.02 1004.41 1004.70 1005.36 1005.87 1006.08 1006.05 1006.13 1006.26 1006.17 1006.14 1006.18 1006.28 1006.14 1005.44 1006.08 1006.81 1008.58 1008.07 1008.91 1007.64 1007.59 1007.44 1007.56 1007.24 1006.79 1007.44 1007.86 1007.67 1008.03 1008.03 1007.89
1002.53 1002.99 1003.67 1004.05 1003.88 1003.28 1002.18 1001.86 1002.39 1003.43 1003.70 1004.07 1004.56 1005.00 1005.32 1005.43 1005.56 1005.71 1006.01 1006.17 1006.35 1006.55 1006.52 1006.45 1006.49 1006.01 1005.31 1005.68 1007.35 1007.73 1009.11 1008.79 1008.84 1008.61 1008.54 1008.01 1007.74 1007.12 1006.85 1006.98 1007.02 1007.03 1007.23 1007.56
1001.97 1001.97 1002.77 1003.20 1003.22 1002.91 1002.75 1002.89 1002.78 1003.05 1003.75 1004.38 1004.84 1005.29 1005.56 1005.78 1006.01 1005.95 1006.07 1006.22 1006.33 1006.38 1006.47 1006.49 1006.46 1006.56 1006.53 1006.88 1007.00 1007.44 1008.14 1007.69 1007.45 1007.62 1007.81 1008.10 1008.31 1007.20 1006.64 1006.40 1006.88 1007.01 1007.15 1007.25
1002.20 1001.67 1002.34 1002.62 1002.40 1002.57 1002.64 1002.74 1003.06 1003.39 1004.00 1004.36 1004.74 1005.19 1005.57 1006.05 1006.15 1006.34 1006.24 1006.16 1005.97 1005.87 1006.24 1006.81 1007.13 1006.96 1006.72 1006.81 1007.23 1006.95 1006.70 1006.90 1007.01 1007.24 1006.98 1006.73 1007.13 1006.57 1005.92 1006.15 1006.02 1006.63 1006.76 1006.76
1002.49 1002.38 1002.52 1002.69 1002.42 1002.29 1002.45 1002.94 1003.31 1003.60 1003.95 1004.41 1004.83 1005.27 1005.64 1006.13 1006.55 1006.71 1006.77 1006.63 1006.38 1006.44 1006.34 1006.34 1006.71 1006.99 1007.05 1006.97 1006.82 1006.28 1006.66 1006.96 1007.61 1007.73 1007.23 1006.94 1007.03 1006.03 1005.63 1005.54 1005.74 1006.20 1005.94 1005.62
1002.55 1002.34 1002.48 1002.70 1002.65 1002.60 1002.95 1003.00 1003.16 1003.75 1004.16 1004.44 1004.81 1005.30 1005.75 1006.20 1006.62 1006.88 1007.08 1006.98 1007.03 1007.11 1007.13 1007.18 1007.31 1007.42 1007.23 1006.74 1006.42 1006.23 1005.76 1005.93 1006.24 1006.31 1006.28 1005.88 1005.55 1005.28 1005.24 1005.22 1005.54 1005.36 1005.09 1004.82
Thickness
5850 5826 5815 5838 5858 5863 5846 5822 5811 5833 5866 5849 5833 5816 5794 5806 5816 5828 5834 5832 5833 5833 5838 5838 5838 5839 5835 5829 5822 5817 5810 5804 5798 5791 5785 5781 5777 5781 5784 5785 5785 5783 5783 5780
5830 5814 5852 5872 5871 5857 5849 5841 5838 5847 5874 5877 5843 5799 5799 5815 5831 5835 5844 5841 5842 5841 5843 5843 5841 5842 5837 5830 5826 5821 5816 5807 5803 5797 5790 5785 5785 5783 5781 5781 5777 5778 5779 5781
5820 5841 5872 5866 5852 5843 5845 5837 5844 5848 5869 5875 5836 5802 5797 5826 5859 5859 5856 5860 5858 5855 5849 5848 5846 5844 5843 5835 5828 5823 5819 5812 5806 5800 5792 5787 5783 5783 5781 5780 5778 5775 5773 5777
5841 5869 5863 5852 5847 5847 5822 5861 5860 5859 5839 5812 5861 5774 5803 5818 5839 5856 5862 5860 5867 5868 5865 5861 5856 5850 5848 5842 5838 5830 5822 5815 5809 5803 5794 5788 5782 5778 5784 5784 5780 5778 5774 5773
5832 5849 5854 5840 5847 5858 5840 5868 5861 5860 5841 5834 5838 5801 5810 5827 5824 5848 5869 5876 5877 5878 5877 5871 5867 5864 5859 5851 5843 5835 5827 5821 5816 5808 5803 5797 5789 5789 5789 5781 5778 5776 5771 5770
5848 5877 5869 5859 5864 5865 5870 5856 5854 5852 5833 5782 5824 5809 5797 5809 5828 5852 5865 5874 5883 5882 5883 5881 5879 5874 5865 5859 5848 5839 5829 5824 5821 5814 5807 5803 5795 5790 5785 5778 5778 5775 5776 5778
5841 5851 5868 5877 5851 5860 5853 5834 5783 5781 5783 5786 5831 5818 5813 5843 5859 5858 5868 5884 5884 5887 5886 5881 5876 5873 5868 5862 5851 5841 5831 5821 5821 5817 5811 5807 5802 5795 5790 5789 5787 5782 5784 5784
5817 5807 5856 5872 5857 5840 5839 5835 5779 5769 5772 5795 5832 5803 5821 5867 5878 5883 5887 5892 5893 5887 5889 5886 5884 5878 5871 5863 5854 5844 5834 5826 5823 5817 5815 5812 5806 5802 5796 5794 5792 5794 5789 5778
5807 5823 5874 5877 5878 5863 5841 5811 5849 5815 5826 5793 5819 5834 5854 5862 5864 5867 5874 5882 5885 5891 5884 5886 5884 5879 5871 5860 5852 5842 5831 5826 5826 5823 5816 5813 5812 5807 5805 5804 5802 5799 5788 5782
5835 5799 5855 5868 5875 5866 5851 5861 5804 5796 5777 5782 5787 5804 5802 5832 5841 5853 5858 5865 5873 5876 5888 5882 5867 5858 5868 5857 5850 5842 5834 5828 5825 5825 5820 5816 5813 5811 5808 5807 5805 5805 5800 5788
5840 5817 5818 5851 5843 5835 5835 5819 5824 5817 5803 5773 5768 5787 5850 5841 5845 5838 5848 5858 5857 5841 5837 5839 5844 5838 5820 5842 5849 5844 5836 5832 5827 5826 5822 5816 5814 5811 5807 5804 5805 5807 5805 5800
5834 5818 5786 5815 5856 5868 5859 5840 5830 5772 5782 5798 5787 5790 5844 5837 5845 5848 5852 5854 5851 5836 5827 5832 5833 5836 5815 5799 5830 5834 5836 5832 5835 5833 5828 5820 5814 5812 5808 5806 5805 5805 5804 5803
5825 5795 5764 5784 5824 5838 5837 5842 5838 5824 5807 5787 5771 5783 5837 5830 5837 5835 5846 5852 5849 5828 5823 5823 5825 5809 5800 5805 5840 5847 5846 5840 5838 5836 5832 5825 5820 5813 5809 5807 5806 5805 5804 5801
5830 5805 5781 5756 5780 5809 5802 5819 5827 5814 5776 5782 5795 5809 5826 5818 5820 5839 5845 5844 5847 5827 5816 5812 5813 5812 5814 5814 5844 5856 5836 5842 5835 5834 5832 5830 5825 5822 5817 5812 5811 5809 5808 5805
5822 5788 5802 5805 5813 5817 5813 5814 5819 5807 5804 5790 5802 5806 5820 5826 5824 5828 5839 5844 5843 5836 5803 5814 5810 5807 5806 5810 5837 5850 5844 5842 5841 5830 5833 5827 5822 5823 5824 5819 5815 5816 5812 5810
5823 5784 5803 5789 5806 5807 5801 5813 5816 5818 5817 5812 5815 5813 5839 5850 5842 5836 5836 5836 5835 5838 5832 5816 5806 5807 5815 5823 5826 5826 5838 5841 5831 5822 5820 5820 5822 5818 5799 5809 5817 5815 5811 5807
5799 5788 5777 5762 5790 5790 5773 5800 5809 5820 5821 5817 5790 5814 5835 5827 5801 5799 5817 5833 5822 5822 5827 5829 5829 5816 5815 5815 5819 5817 5813 5816 5817 5817 5814 5816 5818 5820 5819 5809 5799 5807 5804 5803
5794 5787 5779 5757 5774 5738 5790 5825 5831 5825 5823 5822 5813 5815 5819 5806 5801 5808 5809 5807 5816 5821 5818 5812 5787 5818 5822 5824 5817 5810 5805 5802 5803 5803 5796 5797 5795 5796 5796 5795 5791 5794 5798 5798
5816 5790 5767 5748 5746 5772 5794 5814 5808 5807 5786 5810 5802 5810 5811 5812 5810 5792 5799 5803 5798 5805 5809 5798 5781 5793 5815 5818 5817 5810 5797 5795 5793 5797 5798 5792 5786 5778 5781 5781 5780 5787 5791 5790
5813 5804 5767 5759 5744 5736 5788 5812 5827 5822 5759 5802 5801 5798 5795 5797 5765 5769 5783 5789 5790 5793 5793 5775 5787 5777 5785 5773 5732 5771 5779 5772 5776 5779 5777 5783 5783 5781 5783 5783 5778 5779 5782 5783
5772 5771 5756 5750 5743 5764 5800 5809 5819 5765 5754 5791 5793 5790 5785 5772 5773 5782 5788 5786 5785 5783 5783 5774 5775 5776 5780 5773 5749 5744 5744 5741 5758 5765 5769 5769 5772 5775 5773 5771 5775 5772 5772 5774
5767 5753 5748 5752 5745 5737 5802 5799 5772 5774 5787 5788 5783 5780 5778 5778 5780 5777 5774 5774 5777 5775 5774 5773 5763 5767 5775 5772 5753 5747 5734 5720 5732 5733 5741 5748 5750 5758 5763 5764 5766 5769 5770 5767
5763 5774 5757 5761 5752 5784 5790 5783 5793 5792 5783 5778 5775 5775 5770 5767 5765 5768 5767 5765 5762 5760 5757 5757 5750 5740 5740 5739 5740 5733 5734 5737 5737 5733 5735 5729 5724 5739 5750 5757 5753 5754 5757 5757
5776 5791 5765 5771 5783 5777 5786 5788 5785 5783 5777 5778 5776 5771 5766 5755 5755 5751 5753 5754 5759 5760 5755 5746 5732 5727 5731 5729 5723 5725 5723 5727 5724 5723 5728 5732 5728 5734 5744 5743 5749 5744 5745 5746
5769 5774 5769 5765 5781 5784 5783 5776 5777 5775 5775 5769 5767 5761 5756 5749 5743 5743 5738 5738 5740 5738 5738 5739 5731 5722 5711 5708 5711 5716 5712 5708 5699 5698 5706 5713 5713 5721 5724 5729 5732 5731 5738 5742
5769 5762 5747 5741 5767 5766 5767 5774 5776 5768 5765 5764 5758 5751 5748 5741 5733 5731 5724 5725 5723 5720 5718 5714 5711 5707 5704 5703 5698 5695 5699 5696 5693 5692 5692 5697 5704 5707 5709 5710 5711 5720 5727 5732